TimeWET,TemperatureF,Dew PointF,Humidity,Sea Level PressureIn,VisibilityMPH,Wind Direction,Wind SpeedMPH,Gust SpeedMPH,PrecipitationIn,Events,Conditions,WindDirDegrees,DateUTC
6:00 AM,63,33,20,,9,East,4.6,,,,Scattered Clouds,100,2012-10-04 06:00:00
6:00 AM,62.6,32.0,32,30.12,6.2,East,4.6,-,N/A,,Partly Cloudy,100,2012-10-04 06:00:00
7:00 AM,62.6,30.2,30,30.15,6.2,East,4.6,-,N/A,,Partly Cloudy,100,2012-10-04 07:00:00
8:00 AM,66.2,33.8,30,30.18,6.2,NNW,2.3,-,N/A,,Scattered Clouds,340,2012-10-04 08:00:00
9:00 AM,73,34,14,,12,NNW,4.6,,,,Scattered Clouds,340,2012-10-04 09:00:00
9:00 AM,73.4,33.8,23,30.18,6.2,NNW,4.6,-,N/A,,Scattered Clouds,340,2012-10-04 09:00:00
10:00 AM,78.8,28.4,16,30.18,6.2,SSE,2.3,-,N/A,,Scattered Clouds,160,2012-10-04 10:00:00
11:00 AM,80.6,33.8,18,30.18,6.2,West,4.6,-,N/A,,Scattered Clouds,260,2012-10-04 11:00:00
12:00 PM,81,32,9,,16,South,4.6,,,,Partly Cloudy,180,2012-10-04 12:00:00
12:00 PM,80.6,32.0,17,30.15,6.2,South,4.6,-,N/A,,Scattered Clouds,180,2012-10-04 12:00:00
1:00 PM,86.0,37.4,18,30.09,6.2,WSW,16.1,-,N/A,,Scattered Clouds,240,2012-10-04 13:00:00
2:00 PM,86.0,41.0,20,30.09,6.2,SW,16.1,-,N/A,,Scattered Clouds,220,2012-10-04 14:00:00
3:00 PM,85,40,12,,6,SW,18.4,,,,Partly Cloudy,220,2012-10-04 15:00:00
3:00 PM,86.0,39.2,19,30.06,6.2,SW,18.4,-,N/A,,Scattered Clouds,220,2012-10-04 15:00:00
4:00 PM,84.2,39.2,20,30.06,6.2,SSW,20.7,-,N/A,,Scattered Clouds,200,2012-10-04 16:00:00
5:00 PM,82.4,41.0,23,30.06,6.2,SSW,16.1,-,N/A,,Scattered Clouds,200,2012-10-04 17:00:00
6:00 PM,83,41,14,,9,South,13.8,,,,Mostly Cloudy,180,2012-10-04 18:00:00
6:00 PM,82.4,41.0,23,30.06,6.2,South,13.8,-,N/A,,Scattered Clouds,180,2012-10-04 18:00:00
9:00 PM,76,45,23,,4,WSW,9.2,,,,Partly Cloudy,240,2012-10-04 21:00:00
9:00 PM,77.0,44.6,32,30.15,6.2,WSW,9.2,-,N/A,,Scattered Clouds,240,2012-10-04 21:00:00